• Join FlightAware (Why Join?)
  • Login
  • US Flag 
10:36PM EST


 

Airport Tracker/Info


-or-


 

Live Flight TrackerFlight Track Log ✈ EJA131 ✈ 25-Apr-2013 ✈ KSGJ - MYEH / ELH

Flight Track Log - Related Links

Times and Time Zones

All times are in EDT time to prevent confusion due to time zone crossing. See the EJA131 flight status page for this flight to view local times or setup timezone preferences in your user account.

Time Position Orientation Groundspeed Altitude Reporting Facility
EDT Latitude Longitude Course Direction KTS MPH feet Rate Location/Type
03:37PM 29.9478 -81.3225 46° Northeast 158 182 800  Level Jacksonville Center
03:38PM 29.9850 -81.2786 46° Northeast 223 257 3,100 2,672 Climbing Jacksonville Center
03:39PM 30.0511 -81.2417 26° Northeast 224 258 6,500 2,531 Climbing Jacksonville Center
03:40PM 30.0525 -81.1767 89° East 271 312 8,500 1,725 Climbing Jacksonville Center
03:41PM 30.0378 -81.1722 165° South 295 339 8,800 2,154 Climbing Jacksonville Center
03:42PM 29.9625 -81.1592 171° South 289 333 11,300 2,100 Climbing Jacksonville Center
03:43PM 29.8808 -81.1511 175° South 283 326 13,000 1,500 Climbing Jacksonville Center
03:44PM 29.7869 -81.1481 178° South 311 358 14,300 1,450 Climbing Jacksonville Center
03:45PM 29.6928 -81.1378 175° South 329 379 15,900 1,350 Climbing Jacksonville Center
03:46PM 29.6003 -81.0917 157° South 349 402 17,000 1,200 Climbing Jacksonville Center
03:47PM 29.5139 -81.0264 147° Southeast 355 409 18,300 1,261 Climbing Jacksonville Center
03:48PM 29.4356 -80.9564 142° Southeast 355 409 19,500 1,050 Climbing Jacksonville Center
03:49PM 29.3511 -80.8867 144° Southeast 370 426 20,400 942 Climbing Jacksonville Center
03:50PM 29.2622 -80.8144 145° Southeast 381 438 21,400 900 Climbing Jacksonville Center
03:51PM 29.1733 -80.7450 146° Southeast 381 438 22,200 857 Climbing Jacksonville Center
03:52PM 29.0825 -80.6750 146° Southeast 385 443 23,100 958 Climbing Miami Center
03:53PM 28.9906 -80.6006 145° Southeast 395 455 24,100 950 Climbing Miami Center
03:54PM 28.8906 -80.5167 144° Southeast 401 461 25,000 850 Climbing Miami Center
03:55PM 28.8006 -80.4450 145° Southeast 401 461 25,800 800 Climbing Miami Center
03:56PM 28.7144 -80.3758 145° Southeast 401 461 26,600 850 Climbing Miami Center
03:57PM 28.6189 -80.2783 138° Southeast 411 473 27,500 850 Climbing Miami Center
03:58PM 28.5375 -80.1861 135° Southeast 418 481 28,300 800 Climbing Miami Center
03:59PM 28.4542 -80.0914 135° Southeast 418 481 29,100 700 Climbing Miami Center
04:00PM 28.3789 -80.0067 135° Southeast 423 487 29,700 450 Climbing Miami Center
04:01PM 28.2953 -79.9100 134° Southeast 423 487 30,000 150 Climbing Miami Center
04:02PM 28.1975 -79.8014 136° Southeast 428 493 30,000  Level Miami Center
04:03PM 28.1075 -79.7003 135° Southeast 447 514 30,000  Level Miami Center
04:04PM 28.0158 -79.5919 134° Southeast 457 526 30,000  Level Miami Center
04:05PM 27.9217 -79.4864 135° Southeast 462 532 30,000  Level Miami Center
04:06PM 27.8378 -79.3906 135° Southeast 474 545 30,000  Level Miami Center
04:07PM 27.7314 -79.2708 135° Southeast 481 554 30,000  Level Miami Center
04:08PM 27.6369 -79.1658 135° Southeast 481 554 30,000  Level Miami Center
04:09PM 27.5406 -79.0583 135° Southeast 476 548 30,000  Level Miami Center
04:10PM 27.4564 -78.9656 136° Southeast 476 548 30,000  Level Miami Center
04:11PM 27.3617 -78.8583 135° Southeast 476 548 30,000  Level Miami Center
04:12PM 27.2567 -78.7444 136° Southeast 476 548 30,000  Level Miami Center
04:13PM 27.1578 -78.6378 136° Southeast 476 548 30,000  Level Miami Center
04:14PM 27.0650 -78.5339 135° Southeast 476 548 30,000  Level Miami Center
04:15PM 26.9661 -78.4275 136° Southeast 476 548 30,000  Level Miami Center
04:16PM 26.8836 -78.3286 133° Southeast 476 548 30,000  Level Miami Center
04:17PM 26.7864 -78.2272 137° Southeast 476 548 30,000  Level Miami Center
04:18PM 26.6911 -78.1169 134° Southeast 481 554 30,000 -750 Level Miami Center
04:19PM 26.5958 -78.0183 137° Southeast 481 554 28,500 -1,750 Descending Miami Center
04:20PM 26.5028 -77.9083 133° Southeast 476 548 26,500 -2,000 Descending Miami Center
04:21PM 26.4031 -77.8122 139° Southeast 476 548 24,500 -2,000 Descending Miami Center
04:22PM 26.3117 -77.7094 135° Southeast 471 542 22,500 -2,050 Descending Miami Center
04:23PM 26.2244 -77.6139 135° Southeast 458 527 20,400 -2,050 Descending Miami Center
04:24PM 26.1372 -77.5161 135° Southeast 452 520 18,400 -2,000 Descending Miami Center
04:25PM 26.0458 -77.4208 137° Southeast 428 493 16,400 -2,000 Descending Miami Center
04:26PM 25.9644 -77.3372 137° Southeast 413 475 14,400 -2,000 Descending Miami Center
04:27PM 25.8875 -77.2492 134° Southeast 397 457 12,400 -2,050 Descending Miami Center
04:28PM 25.8208 -77.1819 138° Southeast 368 423 10,300 -1,950 Descending Miami Center
04:29PM 25.7622 -77.1194 136° Southeast 326 375 8,500 -1,650 Descending Miami Center
04:30PM 25.7039 -77.0572 136° Southeast 304 350 7,000 -1,650 Descending Miami Center
04:31PM 25.6497 -76.9994 136° Southeast 283 326 5,200 -1,800 Descending Miami Center
04:33PM 25.5591 -76.8354 119° Southeast  Level Estimated
04:40PM 25.4749 -76.6835 130° Southeast  Level Estimated
04:41PM 25.4749 -76.6835 130° Southeast  Level Estimated
04:42PM 25.4749 -76.6835 130° Southeast  Level Estimated
04:43PM 25.4749 -76.6835 130° Southeast  Level Estimated
04:44PM 25.4749 -76.6835 130° Southeast  Level Estimated
04:45PM 25.4749 -76.6835 130° Southeast  Level Estimated
04:46PM 25.4749 -76.6835 130° Southeast  Level Estimated
04:47PM 25.4749 -76.6835 130° Southeast  Level Estimated
04:48PM 25.4749 -76.6835 130° Southeast  Level Estimated
04:49PM 25.4749 -76.6835 130° Southeast  Level Estimated